Regional Weather Roundup
Issued by NWS

Home | Current Version | Previous Version | Graphics & Text | Print | Product List | Glossary On
Versions: 1 2 3 4 5 6 7 8 9 10 11 12 13 14 15 16 17 18 19 20 21 22 23 24 25 26 27 28 29 30 31 32 33 34 35 36 37 38 39 40 41 42 43 44 45 46 47 48 49 50
000
ASUS43 KMKX 241900
RWRWI

WISCONSIN REGIONAL WEATHER ROUNDUP
NATIONAL WEATHER SERVICE MILWAUKEE/SULLIVAN WI
200 PM CDT FRI MAR 24 2017

NOTE: "FAIR" INDICATES FEW OR NO CLOUDS BELOW 12,000 FEET WITH NO
SIGNIFICANT WEATHER AND/OR OBSTRUCTIONS TO VISIBILITY.

WIZ001-002-006>008-014>016-023>028-242000-
NORTHWEST WISCONSIN

CITY           SKY/WX    TMP DP  RH WIND       PRES   REMARKS
SUPERIOR ARPT  CLOUDY    38  34  83 NE6       30.12R WCI  34
ASHLAND        CLOUDY    38  33  82 NE10      30.11R WCI  31
HAYWARD        CLOUDY    41  34  76 N12       30.06R HAZE
SIREN          CLOUDY    41  34  75 N13       30.07R
CUMBERLAND     CLOUDY    37  34  87 NE10      30.05R WCI  30
RICE LAKE      CLOUDY    40  36  86 N12       30.06R WCI  33
CHETEK         CLOUDY    40  37  89 N5        30.04S
LADYSMITH      CLOUDY    40  36  86 N12       30.05R WCI  33
EAU CLAIRE     LGT RAIN  39  37  92 NE12G17   30.02S WCI  32
MENOMONIE      DRIZZLE   40  37  89 N12       30.03S WCI  34
NEW RICHMOND   CLOUDY    41  35  80 N9        30.07R
OSCEOLA        CLOUDY    43  35  74 N5        30.10R
$$

WIZ003>005-009-010-017-018-242000-
NORTH CENTRAL WISCONSIN

CITY           SKY/WX    TMP DP  RH WIND       PRES   REMARKS
MANITOWISH WTR CLOUDY    33  33 100 NE6       30.03R FOG     WCI  28
ARBOR VITAE    CLOUDY    37  35  95 NE10      30.02R FOG     WCI  29
WOODRUFF       CLOUDY    37  35  95 NE10      30.02R FOG     WCI  29
RHINELANDER    CLOUDY    36  35  96 NE6       30.01R FOG     WCI  31
EAGLE RIVER    CLOUDY    34  34 100 NE8       30.02R FOG     WCI  27
LAND O LAKES   CLOUDY    33  33 100 N8        30.04R FOG     WCI  27
PHILLIPS       CLOUDY    35  35  99 N7        30.03R WCI  29
TOMAHAWK       LGT RAIN  36  34  93 N5        30.02R WCI  32
MEDFORD        DRIZZLE   36  34  93 N10       30.00R WCI  28
MERRILL        LGT RAIN  37  37  99 N6        30.01R WCI  32
$$

WIZ029-030-035-036-043>047-242000-
CENTRAL WISCONSIN

CITY           SKY/WX    TMP DP  RH WIND       PRES   REMARKS
WAUSAU         LGT RAIN  38  37  97 NE6       29.99R FOG     WCI  33
MOSINEE        LGT RAIN  37  37 100 N8        30.00R FOG     WCI  31
MARSHFIELD     RAIN      38  37  97 NE9       29.99R FOG     WCI  31
STEVENS POINT  RAIN      35  35 100 NE10      29.99R WCI  28
WAUPACA        RAIN      39  37  91 N7        29.98R WCI  34
WAUTOMA        CLOUDY    39  36  89 N10       29.98R WCI  32
WISC RAPIDS    LGT RAIN  38  38 100 NE7       30.02R FOG     WCI  33
CAMP DOUGLAS   CLOUDY    41  37  87 NE9       29.96S
$$

WIZ011>013-019>022-031-037>040-048>050-242000-
NORTHEAST WISCONSIN

CITY           SKY/WX    TMP DP  RH WIND       PRES   REMARKS
ANTIGO         DRIZZLE   35  35  99 N6        29.99R WCI  30
SHAWANO        LGT RAIN  38  36  92 NE7       30.00R WCI  33
OCONTO         CLOUDY    37  35  95 NE8       30.01S WCI  30
STURGEON BAY   RAIN      35  34  96 N8        30.01F FOG     WCI  29
GREEN BAY      MIX PCPN  37  37 100 NE14      29.99R FOG     WCI  28
MANITOWOC      NOT AVBL
APPLETON       CLOUDY    37  36  93 NE10      29.95S FOG     WCI  30
CLINTONVILLE   LGT RAIN  36  36 100 NE12      30.00R WCI  27
OSHKOSH        CLOUDY    41  35  79 NE16      29.96R
$$

WIZ032>034-041-042-053>061-242000-
SOUTHWEST WISCONSIN

CITY           SKY/WX    TMP DP  RH WIND       PRES   REMARKS
LA CROSSE      CLOUDY    44  41  89 N6        30.00R FOG
SPARTA         CLOUDY    41  40  99 N6        29.98S FOG
VIROQUA        CLOUDY    43  41  91 N8        29.96R
BOSCOBEL       CLOUDY    57  45  64 N5        29.92R
PRAIRIE DU CHI CLOUDY    51  42  71 NW6       29.92F
PLATTEVILLE    CLOUDY    65  52  61 NW9       29.89R
$$

WIZ056-057-062-063-064-067-068-242000-
SOUTH CENTRAL WISCONSIN

CITY           SKY/WX    TMP DP  RH WIND       PRES   REMARKS
REEDSBURG      CLOUDY    52  43  72 N7        29.91R
BARABOO/DELLS  CLOUDY    53  41  65 N8        29.91R
LONE ROCK      NOT AVBL
MINERAL POINT  CLOUDY    63  52  67 NW6       29.90R
MADISON        CLOUDY    60  49  66 N6        29.89S
MIDDLETON      MOSUNNY   59  49  69 NE5       29.90S
WATERTOWN      PTSUNNY   61  50  65 NW5       29.90S
MONROE         CLOUDY    72  48  43 SW16      29.86F
JANESVILLE     PTSUNNY   75  48  38 W14G20    29.87R
$$

WIZ051-052-058>065-066-070>072-242000-
SOUTHEAST WISCONSIN

CITY           SKY/WX    TMP DP  RH WIND       PRES   REMARKS
MILWAUKEE      PTSUNNY   54  42  64 NE10      29.92R
WAUKESHA       SUNNY     63  48  59 NW8       29.91R
MILWAUKEE/TIMM CLOUDY    59  39  47 E9        29.92R
RACINE         PTSUNNY   51  40  65 NE13      29.91R
KENOSHA        PTSUNNY   76  49  38 SW22G29   29.87S
FOND DU LAC    CLOUDY    47  39  74 NE14      29.95R
SHEBOYGAN      CLOUDY    45  38  76 NE17      29.96R
WEST BEND      CLOUDY    59  46  63 E7        29.91S
JUNEAU         MOSUNNY   53  44  71 N12       29.93R
$$

LSZ147-162-242000-
LAKE SUPERIOR

STATION/POSITION TIME  TEMP    WIND        PRES    WAVE
                       AIR SEA DIR/SP/G            HT/PER
                 (UTC) (F)     (DEG/KT/KT) (MB)    (FT/S)
DEVILS ISLAND    1800   36      10/  6/  6 1019.9R
PORT WING        1840   36      20/  4/  4 1020.0R
SAXON HARBOR     1840   35     330/  3/  4 1019.0R
$$

LMZ867-665-643>646-242000-
LAKE MICHIGAN

STATION/POSITION TIME  TEMP    WIND        PRES    WAVE
                       AIR SEA DIR/SP/G            HT/PER
                 (UTC) (F)     (DEG/KT/KT) (MB)    (FT/S)
CHAMBERS ISLAND  1840   34      10/  9/ 10 1015.9F
NORTHPORT PIER   1840   33     340/  7/  9 1016.6S
SISTER BAY       1806   34      20/ 10/ 11   N/A
KEWAUNEE LAKESHO 1830   37      10/  9/ 12 1015.1R
SHEBOYGAN LAKESH 1800   39      30/ 13/ 15 1014.6R
PORT WASHINGTON  1840   42      50/ 14/ 18 1014.9R
MILWAUKEE LAKESH 1830   41      30/ 11/ 12   N/A
KENOSHA   LAKESH 1800          250/ 15/ 28 1011.5
$$

TC  - TEMPERATURE IN CELSIUS
VSB - VISIBILITY IN STATUTE MILES
WCI - WIND CHILL INDEX
HX  - HEAT INDEX





USA.gov is the U.S. government's official web portal to all federal, state and local government web resources and services.